| time (UTC) | temp F | wind direction | speed knots | gust knots | rain 1hr in | rain 24hr in | rain mn in | humidity % | barometer mb |
| 20260507074528 | 48 | 0 | 0.0 | 0.0 | 0.00 | 0.29 | 0.00 | 77 | 1012.0 |
| 20260507073028 | 48 | 0 | 0.0 | 0.0 | 0.00 | 0.29 | 0.00 | 75 | 1012.1 |
| 20260507071530 | 49 | 0 | 0.0 | 0.0 | 0.00 | 0.29 | 0.00 | 75 | 1012.3 |
| 20260507070028 | 50 | 0 | 0.0 | 0.9 | 0.00 | 0.29 | 0.00 | 74 | 1012.5 |
| 20260507064528 | 50 | 0 | 0.0 | 0.0 | 0.00 | 0.29 | 0.00 | 75 | 1012.2 |
| 20260507063032 | 50 | 0 | 0.0 | 0.0 | 0.00 | 0.29 | 0.00 | 77 | 1012.2 |
| 20260507061529 | 51 | 0 | 0.0 | 0.9 | 0.00 | 0.29 | 0.00 | 78 | 1012.2 |
| 20260507060030 | 51 | 0 | 0.0 | 0.0 | 0.00 | 0.29 | 0.00 | 83 | 1012.4 |
| 20260507054527 | 51 | 292 | 0.0 | 0.9 | 0.00 | 0.29 | 0.00 | 84 | 1012.2 |
| 20260507053030 | 51 | 0 | 0.0 | 0.0 | 0.00 | 0.29 | 0.00 | 86 | 1012.3 |
| 20260507051528 | 51 | 0 | 0.0 | 0.0 | 0.00 | 0.29 | 0.00 | 87 | 1012.3 |
| 20260507050035 | 51 | 0 | 0.0 | 0.0 | 0.00 | 0.29 | 0.00 | 87 | 1012.1 |
| 20260507044531 | 51 | 0 | 0.0 | 0.0 | 0.00 | 0.29 | 0.00 | 86 | 1012.1 |
| 20260507043028 | 51 | 0 | 0.0 | 0.0 | 0.00 | 0.29 | 0.00 | 87 | 1012.3 |
| 20260507041543 | 52 | 0 | 0.0 | 0.0 | 0.00 | 0.29 | 0.00 | 87 | 1012.1 |
| 20260507040029 | 52 | 0 | 0.0 | 0.0 | 0.00 | 0.29 | 0.00 | 87 | 1011.9 |
| 20260507034528 | 52 | 0 | 0.0 | 0.0 | 0.00 | 0.29 | 0.29 | 85 | 1011.9 |
| 20260507033032 | 52 | 0 | 0.0 | 1.7 | 0.00 | 0.29 | 0.29 | 85 | 1011.7 |
| 20260507031528 | 52 | 0 | 0.0 | 0.0 | 0.00 | 0.29 | 0.29 | 86 | 1011.8 |
| 20260507030028 | 53 | 0 | 0.0 | 2.6 | 0.00 | 0.29 | 0.29 | 85 | 1011.9 |
| 20260507024529 | 53 | 0 | 0.0 | 0.9 | 0.00 | 0.29 | 0.29 | 84 | 1011.6 |
| 20260507023030 | 53 | 0 | 0.0 | 2.6 | 0.00 | 0.29 | 0.29 | 84 | 1012.0 |
| 20260507021527 | 53 | 63 | 0.9 | 2.6 | 0.00 | 0.29 | 0.29 | 84 | 1011.6 |
| 20260507020030 | 54 | 32 | 0.0 | 2.6 | 0.00 | 0.29 | 0.29 | 84 | 1011.9 |
| 20260507014546 | 54 | 0 | 0.0 | 0.9 | 0.00 | 0.29 | 0.29 | 84 | 1012.1 |
| 20260507013041 | 54 | 0 | 0.0 | 3.5 | 0.00 | 0.29 | 0.29 | 83 | 1012.2 |
| 20260507011537 | 55 | 60 | 0.0 | 5.2 | 0.00 | 0.29 | 0.29 | 84 | 1012.0 |
| 20260507010033 | 55 | 0 | 0.0 | 2.6 | 0.00 | 0.29 | 0.29 | 84 | 1011.6 |
| 20260507004527 | 55 | 0 | 0.0 | 2.6 | 0.00 | 0.29 | 0.29 | 84 | 1011.6 |
| 20260507003029 | 56 | 0 | 0.9 | 2.6 | 0.00 | 0.29 | 0.29 | 84 | 1011.0 |
| 20260507001530 | 56 | 0 | 0.0 | 5.2 | 0.00 | 0.29 | 0.29 | 84 | 1010.6 |
| 20260507000032 | 57 | 70 | 1.7 | 4.3 | 0.00 | 0.29 | 0.29 | 84 | 1010.2 |
| 20260506234530 | 58 | 67 | 2.6 | 8.7 | 0.00 | 0.29 | 0.29 | 84 | 1009.7 |
| 20260506233028 | 60 | 0 | 0.0 | 0.9 | 0.00 | 0.29 | 0.29 | 86 | 1009.6 |
| 20260506231531 | 60 | 0 | 0.0 | 0.0 | 0.00 | 0.29 | 0.29 | 86 | 1009.2 |
| 20260506230031 | 61 | 0 | 0.0 | 0.9 | 0.00 | 0.29 | 0.29 | 86 | 1009.2 |
| 20260506224530 | 62 | 0 | 0.0 | 0.0 | 0.00 | 0.29 | 0.29 | 85 | 1009.0 |
| 20260506223029 | 62 | 0 | 0.0 | 0.9 | 0.00 | 0.29 | 0.29 | 84 | 1008.8 |
| 20260506221527 | 63 | 0 | 0.0 | 2.6 | 0.00 | 0.29 | 0.29 | 84 | 1008.6 |
| 20260506220030 | 64 | 0 | 0.0 | 1.7 | 0.00 | 0.29 | 0.29 | 84 | 1008.4 |
| 20260506214531 | 65 | 245 | 0.0 | 1.7 | 0.00 | 0.29 | 0.29 | 86 | 1008.0 |
| 20260506213030 | 65 | 0 | 0.0 | 2.6 | 0.00 | 0.29 | 0.29 | 85 | 1007.7 |
| 20260506211527 | 66 | 219 | 0.9 | 5.2 | 0.01 | 0.29 | 0.29 | 86 | 1007.4 |
| 20260506210031 | 65 | 166 | 0.9 | 3.5 | 0.01 | 0.29 | 0.29 | 89 | 1007.2 |
| 20260506204528 | 64 | 226 | 0.9 | 3.5 | 0.01 | 0.29 | 0.29 | 90 | 1007.1 |
| 20260506203035 | 64 | 0 | 0.0 | 0.9 | 0.01 | 0.29 | 0.29 | 90 | 1007.0 |
| 20260506201531 | 64 | 0 | 0.0 | 0.9 | 0.00 | 0.28 | 0.28 | 89 | 1007.1 |
| 20260506200029 | 64 | 236 | 0.0 | 3.5 | 0.00 | 0.28 | 0.28 | 89 | 1007.0 |
| 20260506194530 | 64 | 235 | 0.9 | 4.3 | 0.00 | 0.28 | 0.28 | 89 | 1007.0 |
| 20260506193031 | 63 | 236 | 2.6 | 6.1 | 0.00 | 0.28 | 0.28 | 89 | 1007.2 |
| 20260506191532 | 63 | 243 | 3.5 | 6.1 | 0.00 | 0.28 | 0.28 | 89 | 1007.2 |
| 20260506190030 | 62 | 225 | 1.7 | 4.3 | 0.00 | 0.28 | 0.28 | 90 | 1007.2 |
| 20260506184532 | 61 | 218 | 1.7 | 7.0 | 0.00 | 0.28 | 0.28 | 91 | 1007.4 |
| 20260506183030 | 61 | 233 | 2.6 | 7.0 | 0.00 | 0.28 | 0.28 | 92 | 1007.5 |
| 20260506181535 | 61 | 240 | 4.3 | 7.0 | 0.00 | 0.28 | 0.28 | 92 | 1007.3 |
| 20260506180038 | 60 | 222 | 3.5 | 7.8 | 0.01 | 0.28 | 0.28 | 93 | 1007.5 |
| 20260506174529 | 60 | 226 | 4.3 | 8.7 | 0.01 | 0.28 | 0.28 | 93 | 1007.7 |
| 20260506173035 | 60 | 245 | 4.3 | 7.0 | 0.02 | 0.28 | 0.28 | 93 | 1007.5 |
| 20260506171546 | 60 | 226 | 4.3 | 7.8 | 0.02 | 0.28 | 0.28 | 93 | 1007.7 |
| 20260506170033 | 60 | 245 | 2.6 | 7.0 | 0.01 | 0.27 | 0.27 | 92 | 1007.8 |
| 20260506164528 | 60 | 212 | 2.6 | 6.1 | 0.00 | 0.26 | 0.26 | 92 | 1007.9 |
| 20260506163034 | 60 | 224 | 1.7 | 5.2 | 0.00 | 0.26 | 0.26 | 91 | 1007.7 |
| 20260506161539 | 60 | 237 | 3.5 | 7.0 | 0.00 | 0.26 | 0.26 | 91 | 1007.8 |
| 20260506160032 | 60 | 247 | 4.3 | 10.4 | 0.01 | 0.26 | 0.26 | 91 | 1007.7 |
| 20260506154533 | 60 | 220 | 4.3 | 7.8 | 0.02 | 0.26 | 0.26 | 91 | 1007.7 |
| 20260506153028 | 60 | 237 | 5.2 | 10.4 | 0.04 | 0.26 | 0.26 | 91 | 1007.5 |
| 20260506151530 | 60 | 250 | 4.3 | 10.4 | 0.07 | 0.26 | 0.26 | 91 | 1007.3 |
| 20260506150035 | 60 | 232 | 5.2 | 8.7 | 0.07 | 0.25 | 0.25 | 91 | 1007.6 |
| 20260506144530 | 60 | 218 | 3.5 | 9.6 | 0.07 | 0.24 | 0.24 | 91 | 1007.7 |
| 20260506143031 | 60 | 227 | 3.5 | 7.0 | 0.07 | 0.22 | 0.22 | 91 | 1007.9 |
| 20260506141530 | 60 | 214 | 1.7 | 5.2 | 0.07 | 0.19 | 0.19 | 91 | 1008.0 |
| 20260506140028 | 60 | 224 | 1.7 | 3.5 | 0.08 | 0.18 | 0.18 | 91 | 1007.8 |
| 20260506134605 | 60 | 226 | 0.0 | 3.5 | 0.07 | 0.17 | 0.17 | 92 | 1007.7 |
| 20260506133030 | 59 | 251 | 0.9 | 2.6 | 0.07 | 0.15 | 0.15 | 92 | 1008.0 |
| 20260506131529 | 59 | 0 | 0.0 | 0.9 | 0.07 | 0.12 | 0.12 | 91 | 1008.1 |
| 20260506130028 | 59 | 0 | 0.0 | 0.0 | 0.06 | 0.10 | 0.10 | 91 | 1008.1 |
| 20260506124530 | 59 | 0 | 0.0 | 0.0 | 0.07 | 0.10 | 0.10 | 91 | 1008.2 |
| 20260506123030 | 59 | 0 | 0.0 | 0.9 | 0.06 | 0.08 | 0.08 | 89 | 1008.3 |
| 20260506121534 | 59 | 260 | 0.0 | 3.5 | 0.04 | 0.05 | 0.05 | 89 | 1008.6 |
| 20260506120029 | 59 | 0 | 0.0 | 0.9 | 0.04 | 0.04 | 0.04 | 89 | 1008.5 |
| 20260506114534 | 59 | 0 | 0.0 | 0.9 | 0.03 | 0.03 | 0.03 | 88 | 1008.2 |
| 20260506113033 | 60 | 0 | 0.0 | 0.9 | 0.02 | 0.02 | 0.02 | 85 | 1008.0 |
| 20260506111529 | 62 | 297 | 0.0 | 0.9 | 0.01 | 0.01 | 0.01 | 80 | 1008.0 |
| 20260506110030 | 63 | 291 | 0.0 | 1.7 | 0.00 | 0.00 | 0.00 | 73 | 1007.7 |
| 20260506104530 | 64 | 288 | 0.0 | 1.7 | 0.00 | 0.00 | 0.00 | 68 | 1007.5 |
| 20260506103029 | 64 | 293 | 0.0 | 0.9 | 0.00 | 0.00 | 0.00 | 68 | 1007.2 |
| 20260506101528 | 64 | 234 | 0.9 | 4.3 | 0.00 | 0.00 | 0.00 | 68 | 1007.1 |
| 20260506100033 | 64 | 0 | 0.9 | 2.6 | 0.00 | 0.00 | 0.00 | 68 | 1006.9 |
| 20260506094528 | 63 | 228 | 0.0 | 0.9 | 0.00 | 0.00 | 0.00 | 69 | 1007.0 |
| 20260506093030 | 63 | 274 | 0.0 | 0.9 | 0.00 | 0.00 | 0.00 | 68 | 1007.0 |
| 20260506091528 | 62 | 0 | 0.0 | 0.9 | 0.00 | 0.00 | 0.00 | 73 | 1007.1 |
| 20260506090030 | 63 | 0 | 0.0 | 0.9 | 0.00 | 0.00 | 0.00 | 72 | 1007.3 |
| 20260506084531 | 64 | 291 | 0.0 | 0.9 | 0.00 | 0.00 | 0.00 | 64 | 1007.3 |
| 20260506083028 | 63 | 283 | 0.0 | 0.0 | 0.00 | 0.00 | 0.00 | 69 | 1007.3 |
| 20260506081532 | 64 | 0 | 0.0 | 0.9 | 0.00 | 0.00 | 0.00 | 63 | 1007.5 |